Location: Saint Louis
(38.6272°N, 90.1978°W)
Time: 02:18:45
(UTC-05:00)

ISS - Pass Details

Date: 25 May 2013
Orbit: 401 x 404 km, 51.6° (Epoch: 31 July)

Event Time Altitude Azimuth Distance (km) Brightness Sun altitude
Exits shadow 02:19:46 14° 64° (ENE) 1,238 -0.4 -27.4°
Drops below altitude 10° 02:20:20 10° 61° (ENE) 1,458 0.1 -27.3°
Sets 02:22:27 0° 56° (NE) 2,318 1.4 -27.2°
